Regional Weather Roundup
Issued by NWS

Home | Current Version | Previous Version | Text Only | Print | Product List | Glossary Off
Versions: 1 2 3 4 5 6 7 8 9 10 11 12 13 14 15 16 17 18 19 20 21 22 23 24 25 26 27 28 29 30 31 32 33 34 35 36 37 38 39 40 41 42 43 44 45 46 47 48 49 50

000
ASUS45 KSLC 051410
RWRUT

UTAH REGIONAL WEATHER ROUNDUP
NATIONAL WEATHER SERVICE SALT LAKE CITY UT
800 AM MDT TUE MAY 05 2015

UTZ001>011-023>025-051500-

NORTHERN UTAH

CITY           SKY/WX    TMP DP  RH WIND       PRES   REMARKS
BRIGHAM CITY   MOSUNNY   50  44  81 CALM      29.86R
HILL AFB       PTSUNNY   53  43  69 SE15      29.88R
LOGAN          MOSUNNY   46  44  93 W5        29.88R
OGDEN          CLOUDY    55  42  61 S9        29.86R
PROVO AIRPORT  CLOUDY    55  45  67 SE5       29.88S
SALT LAKE CITY CLOUDY    60  44  55 S3        29.85R
VERNAL         PTSUNNY   54  40  59 E3        29.90S
WENDOVER       CLOUDY    59  39  47 E9        29.86R
HEBER CITY     CLOUDY    48  41  76 CALM      29.92R
WEST JORDAN    CLOUDY    57  50  77 S5        29.87R

$$

UTZ012>022-026-027-051500-

SOUTHERN/CENTRAL UTAH

CITY           SKY/WX    TMP DP  RH WIND       PRES   REMARKS
BLANDING       CLOUDY    48  45  89 S5        30.00S
BRYCE CANYON   PTSUNNY   43  40  89 W6        29.98S
CEDAR CITY     CLOUDY    49  47  93 SW6       29.93S
DELTA          PTSUNNY   55  47  77 S10       29.89S
HANKSVILLE     CLOUDY    52  50  93 E3        29.91R
MILFORD        LGT RAIN  51  47  86 S10       29.90S
MOAB/CYNLANDS  LGT RAIN  54  52  93 SW9       29.86R
PRICE          CLOUDY    52  45  77 SE3       29.90R
ST GEORGE      CLOUDY    59  48  67 SW5       29.91R
KANAB          PTSUNNY   48  46  93 CALM      29.97R

$$

REGIONAL REPORTS     COLORADO/ARIZONA

CITY           SKY/WX    TMP DP  RH WIND       PRES   REMARKS
CRAIG, CO      MOSUNNY   43  38  82 CALM      29.94F
GRAND JUNCTION CLOUDY    55  46  71 SW6       29.86S
RIFLE          MOSUNNY   50  42  74 N3        29.90F
MONTROSE       CLOUDY    50  45  83 S3        29.91F
CORTEZ         LGT RAIN  48  46  93 CALM      29.94S
PAGE, AZ       CLOUDY    58  50  75 CALM      29.89R
GRAND CANYON   CLOUDY    45  43  93 SW5       30.00R
KINGMAN        CLOUDY    56  52  86 SE6       29.94R
FLAGSTAFF      PTSUNNY   44  41  89 W7        30.00S

$$

REGIONAL REPORTS    NEVADA/IDAHO/WYOMING

CITY           SKY/WX    TMP DP  RH WIND       PRES   REMARKS
LAS VEGAS, NV  MOSUNNY   65  38  36 S9        29.81R
ELY            MOSUNNY   40  34  79 S8        29.95R WCI  34
ELKO           MOSUNNY   46  36  68 CALM      29.92R
POCATELLO, ID  MOSUNNY   54  42  64 E5        29.86R
BURLEY         MOSUNNY   54  42  64 CALM      29.82R
EVANSTON, WY   CLOUDY    44  37  76 E7        29.97R
ROCK SPRINGS   SUNNY     44  38  79 NE3       29.96F
KEMMERER       SUNNY     43  37  81 N5        29.99R

$$


USA.gov is the U.S. government's official web portal to all federal, state and local government web resources and services.